Flag for Germany Weather past 2 weeks in Celle, Lower Saxony, Germany

Now
36 °F

Partly sunny.


Feels Like: 31 °F
Forecast: 31 / 37 °F
Wind: 6 mph from West

Location: Celle Airport

Current Time: Feb 1, 2015 at 3:12:11 PM

Latest Report: Feb 1, 2015 at 2:20 PM


Visibility: 5 mi

Pressure: 29.24 "Hg

Humidity: 81%

Dew point: 30 °F

Location of CelleLocation

Historic Weather in Celle — Graph

°F

Celle temperature yesterday

Maximum temperature yesterday: 36 °F (at 2:20 PM)
Minimum temperature yesterday: 30 °F (at 4:20 AM)
Average temperature yesterday: 32 °F

Past Weeks' High & Low Weather Summary

 TemperatureHumidityPressure
High43 °F (Jan 27, 1:20 PM)100% (Jan 19, 12:20 AM)30.33 "Hg (Jan 19, 12:20 AM)
Low23 °F (Jan 21, 5:20 AM)65% (Jan 17, 4:20 PM)28.68 "Hg (Jan 30, 4:20 AM)
Average33 °F90%29.77 "Hg
* Reported Jan 17 1:20 PM — Feb 1 1:20 PM, Celle, Weather by CustomWeather, © 2014

Note: Actual official high and low records may vary slightly from our data, if they occured in-between our weather recording intervals... More about our weather records

Advertising

Celle weather history for previous 24 hours

 ConditionsComfort  
Time TempWeatherWind HumidityBarometerVisibility
1:20 PM
Feb 1
36 °FPartly sunny.8 mph87%29.21 "Hg4 mi
12:20 PM34 °FFog.10 mph87%29.21 "Hg3 mi
11:20 AM34 °FPartly sunny.9 mph93%29.21 "Hg4 mi
10:20 AM34 °FFog.8 mph87%29.18 "Hg2 mi
9:20 AM34 °FFog.7 mph93%29.18 "Hg2 mi
8:20 AM32 °FIce fog.5 mph93%29.15 "Hg2 mi
7:20 AM32 °FLight snow. Ice fog.3 mph93%29.12 "Hg2 mi
6:20 AM32 °FIce fog.6 mph93%29.12 "Hg2 mi
5:20 AM32 °FIce fog.6 mph93%29.12 "Hg2 mi
4:20 AM32 °FIce fog.5 mph93%29.09 "Hg2 mi
3:20 AM32 °FIce fog.3 mph93%29.09 "Hg3 mi
2:20 AM32 °FIce fog.5 mph93%29.09 "Hg3 mi
1:20 AM32 °FIce fog.5 mph93%29.09 "Hg3 mi
12:20 AM32 °FIce fog.6 mph93%29.09 "Hg2 mi
11:20 PM
Jan 31
30 °FIce fog.5 mph93%29.06 "Hg2 mi
10:20 PM30 °FIce fog.3 mph100%29.06 "Hg2 mi
9:20 PM32 °FIce fog.6 mph100%29.06 "Hg3 mi
8:20 PM32 °FPassing clouds.7 mph93%29.03 "Hg4 mi
7:20 PM32 °FPassing clouds.6 mph93%29.03 "Hg4 mi
6:20 PM34 °FPassing clouds.9 mph93%29.00 "Hg5 mi
5:20 PM36 °FPassing clouds.13 mph87%29.00 "Hg5 mi
4:20 PM36 °FPartly sunny.14 mph93%28.97 "Hg5 mi
3:20 PM36 °FPartly sunny.7 mph93%28.97 "Hg5 mi
Weather by CustomWeather, © 2014

See weather overviewHow to use our weather pages